Regional Weather Roundup
Issued by NWS

Home | Current Version | Previous Version | Text Only | Print | Product List | Glossary Off
Versions: 1 2 3 4 5 6 7 8 9 10 11 12 13 14 15 16 17 18 19 20 21 22 23 24 25 26 27 28 29 30 31 32 33 34 35 36 37 38 39 40 41 42 43 44 45 46 47 48 49 50

000
ASUS43 KMPX 230201
RWRMN
WEATHER ROUNDUP FOR MINNESOTA
NATIONAL WEATHER SERVICE TWIN CITIES/CHANHASSEN MN
900 PM CDT SAT APR 22 2017


NOTE: "FAIR" INDICATES FEW OR NO CLOUDS BELOW 12,000 FEET WITH NO
SIGNIFICANT WEATHER AND/OR OBSTRUCTIONS TO VISIBILITY. N/A MEANS
CURRENT SKY AND/OR WEATHER CONDITIONS ARE NOT AVAILABLE.

MNZ060>063-068>070-230300-
   Twin Cities Metro

CITY           SKY/WX    TMP DP  RH WIND       PRES   REMARKS
TWIN CITIES    PTCLDY    64  33  31 SW5       30.10S
ST PAUL        CLEAR     60  36  40 SW5       30.10F
CRYSTAL        CLEAR     61  31  32 SW5       30.09S
LAKEVILLE      CLEAR     57  37  47 CALM      30.11F
EDEN PRAIRIE   CLEAR     62  33  33 W5        30.10S
SOUTH ST PAUL  CLEAR     60  35  38 CALM      30.10S
LAKE ELMO      FAIR      54  36  50 SW3       30.11S
$$
MNZ001>005-007-008-013>017-022>024-027-028-230300-
   Northwest Minnesota

CITY           SKY/WX    TMP DP  RH WIND       PRES   REMARKS
BEMIDJI        CLOUDY    42  36  76 N16       30.11R
HALLOCK        CLOUDY    36  27  69 N12       30.24R
ROSEAU         CLOUDY    36  30  80 NW9       30.21R
WARROAD        CLOUDY    36  30  80 NW8       30.20R
THIEF RVR FALL CLOUDY    35  28  75 N16       30.20R WCI  25
CROOKSTON      CLOUDY    37  30  75 NE14G23   30.20R
FOSSTON        CLOUDY    39  32  75 N22       30.15R
DETROIT LAKES  MOCLDY    55  43  62 N8        30.07S
MOORHEAD       MOCLDY    46  37  71 N24G32    30.10S
PARK RAPIDS    CLOUDY    58  39  49 N7        30.05R
MAHNOMEN       CLOUDY    44  37  76 N22G31    30.10R
$$
MNZ006-009>011-018-025>026-230300-
   North Central Minnesota

CITY           SKY/WX    TMP DP  RH WIND       PRES   REMARKS
BAUDETTE       CLOUDY    38  33  82 N10       30.17R
FLAG ISLAND    PTCLDY    36  25  64 N15       30.19R
INTL FALLS     LGT RAIN  39  36  89 N9        30.14R
WASKISH        CLOUDY    37  34  87 N8        30.16R
BIG FORK       PTCLDY    45  36  70 N8        30.11R
LONGVILLE      MOCLDY    55  41  58 NE6       30.07R
GRAND RAPIDS   PTCLDY    53  39  59 N9        30.08R
CRANE LAKE     LGT RAIN  41  37  87 N3        30.13S
ORR            CLOUDY    43  34  70 MISG      30.09S
COOK           PTCLDY    43  36  75 N5        30.10S
WALKER         MOCLDY    52  40  62 N5        30.06R
$$
MNZ012-019>021-037-230300-
   Northeast Minnesota

CITY           SKY/WX    TMP DP  RH WIND       PRES   REMARKS
DULUTH         CLOUDY    58  42  55 N7        30.04R
ELY            MOCLDY    45  36  70 NW7       30.09R
HIBBING        PTCLDY    47  38  71 N14       30.07R
EVELETH        PTCLDY    47  33  56 N10G17    30.09R
DULUTH HARBOR  PTCLDY    61  41  48 SW8       30.03R
TWO HARBORS    PTCLDY    57  43  58 N5        30.02R
SILVER BAY     PTCLDY    54  39  58 NW8       30.03R
GRAND MARAIS     N/A     50  38  63 N14G33    30.00R
G MARAIS ARPRT PTCLDY    43  34  70 NW9       30.06R
$$
MNZ029>031-032-039>041-046>048-054>057-064-230300-
   West Central Minnesota

CITY           SKY/WX    TMP DP  RH WIND       PRES   REMARKS
FERGUS FALLS   PTCLDY    55  43  62 W3        30.04R
WHEATON        CLEAR     59  34  38 S6        30.08S
MORRIS         CLEAR     61  39  44 SW9       30.07S
ALEXANDRIA     CLEAR     56  38  50 SW7       30.08S
ELBOW LAKE     FAIR      54  40  59 W7        30.06S
WADENA         CLEAR     55  39  54 S5        30.05F
GLENWOOD       CLEAR     55  37  50 SW6       30.09S
BENSON         CLEAR     57  36  44 SW6       30.10S
ORTONVILLE     CLEAR     61  36  39 SW5       30.08S
MADISON        CLEAR     61  41  48 SW6       30.10R
WILLMAR        FAIR      57  37  47 SW7       30.11S
$$
MNZ033>034-036-042>043-049>051-058-059-230300-
   Central Minnesota

CITY           SKY/WX    TMP DP  RH WIND       PRES   REMARKS
ST CLOUD       CLEAR     57  39  51 SW5       30.08S
SAUK CENTRE    FAIR      55  40  56 SW6       30.09R
PAYNESVILLE    CLEAR     54  35  49 SW5       30.09F
AITKIN         CLEAR     61  32  33 SW6       30.04S
PINE RIVER     PTCLDY    57  39  51 CALM      30.08S
BRAINERD       CLEAR     56  36  47 SW6       30.07R
STAPLES        CLEAR     55  37  50 S3        30.06S
LONG PRAIRIE   FAIR      55  37  50 S5        30.08S
LITTLE FALLS   CLEAR     50  37  62 CALM      30.08S
LITCHFIELD     CLEAR     61  37  41 CALM      30.10F
BUFFALO        CLEAR     58  37  44 CALM      30.11S
MAPLE LAKE     CLEAR     56  40  53 CALM      30.10S
HUTCHINSON     CLOUDY    56  41  57 CALM      30.12S
$$
MNZ037-044-045-052-053-230300-
   East Central Minnesota

CITY           SKY/WX    TMP DP  RH WIND       PRES   REMARKS
PRINCETON      CLEAR     59  36  41 CALM      30.09S
MORA           CLEAR     57  34  41 CALM      30.09R
CAMBRIDGE      CLEAR     57  39  51 CALM      30.07S
RUSH CITY      PTCLDY    58  33  39 SW3       30.08S
MOOSE LAKE     CLEAR     55  34  44 CALM      30.03S
HINCKLEY       FAIR      54  36  50 SW6       30.07R
CLOQUET        PTCLDY    57  30  35 SW7       30.03S
MCGREGOR       PTCLDY    57  37  47 SW5       30.05S
$$
MNZ071>073-080-081-089-090-097-098-230300-
   Southwest Minnesota

CITY           SKY/WX    TMP DP  RH WIND       PRES   REMARKS
MONTEVIDEO     CLEAR     59  32  36 W7        30.10S
GRANITE FALLS  CLEAR     58  37  44 SW8       30.13S
CANBY          CLEAR     60  37  41 CALM      30.12S
MARSHALL       CLEAR     58  35  42 W8        30.12F
REDWOOD FALLS  CLEAR     61  34  36 SW7       30.11F
OLIVIA         CLEAR     54  36  50 W6        30.11S
PIPESTONE      CLEAR     55  36  47 W3        30.14S
WINDOM         CLEAR     57  34  41 SW3       30.15S
WORTHINGTON    CLEAR     57  35  43 SW7       30.16S
JACKSON        CLEAR     55  32  41 W3        30.16S
TRACY          CLEAR     57  37  46 SW5       30.13F
SLAYTON        CLEAR     55  40  56 SW7       30.15F
$$
MNZ065>067-074>077-082>085-091>093-230300-
   South Central Minnesota

CITY           SKY/WX    TMP DP  RH WIND       PRES   REMARKS
MANKATO        CLEAR     62  34  35 SW5       30.13F
NEW ULM        CLEAR     57  36  44 CALM      30.13S
ST JAMES       CLEAR     61  37  41 SW3       30.15S
FAIRMONT       CLEAR     59  36  42 W6        30.15S
GLENCOE        CLEAR     59  41  51 CALM      30.11S
FARIBAULT      PTCLDY    57  37  47 CALM      30.13S
OWATONNA       CLEAR     54  37  54 SW5       30.14S
WASECA         CLEAR     55  36  47 CALM      30.14F
ALBERT LEA     CLEAR     57  34  41 CALM      30.15S
$$
MNZ078>079-086>088-094>096-230300-
   Southeast Minnesota

CITY           SKY/WX    TMP DP  RH WIND       PRES   REMARKS
ROCHESTER      CLEAR     54  39  57 SW7       30.15R
RED WING       CLEAR     54  39  58 CALM      30.11S
STANTON        CLEAR     57  39  52 S3        30.11S
DODGE CENTER   CLEAR     54  37  54 SW5       30.15R
WINONA         CLEAR     55  37  50 CALM      30.14S
AUSTIN         CLEAR     57  34  41 CALM      30.15S
PRESTON        CLEAR     57  30  36 SW3       30.16S
$$
ABBREVIATIONS USED IN REMARKS
   TC - TEMPERATURES IN CELSIUS
  WCI - WIND CHILL INDEX
   HX - HEAT INDEX
  VSB - VISIBILITY
$$




USA.gov is the U.S. government's official web portal to all federal, state and local government web resources and services.